Adak, AK

5:10 PM HDT on August 21, 2017 (GMT -0900)
Adak

Weather History for PADK - March, 2013

Change the Weather History Date:

Friday, March 22, 2013

  Actual Average Record
Temperature  
Mean Temperature 38 °F -  
Max Temperature 41 °F 38 °F 48 °F (2006)
Min Temperature 35 °F 30 °F 18 °F (1970)
Degree Days  
Heating Degree Days 27    
Moisture  
Dew Point 33 °F    
Average Humidity 83    
Maximum Humidity 93    
Minimum Humidity 65    
Precipitation  
Precipitation 0.02 in - - ()
Sea Level Pressure  
Sea Level Pressure 29.71 in    
Wind  
Wind Speed 21 mph (SW)    
Max Wind Speed 34 mph    
Max Gust Speed 41 mph    
Visibility 9 miles    
Events      
Averages and records for this station are not official NWS values.
T = Trace of Precipitation, MM = Missing Value Source: NWS Daily Summary

Daily Weather History Graph

Daily Weather History Graph

Search for Another Location

Airport or City:

Trip Planner

Search our weather history database for the weather conditions in past years. The results will help you decide how hot, cold, wet, or windy it might be!

Date:

Astronomy

Mar. 22, 2013 Rise Set
Actual Time 8:43 AM HDT 9:04 PM HDT
Civil Twilight 8:09 AM HDT 9:37 PM HDT
Nautical Twilight 7:29 AM HDT 10:18 PM HDT
Astronomical Twilight 6:48 AM HDT 11:00 PM HDT
Moon 4:18 PM HDT 6:22 AM HDT
Length of Visible Light 13h 28m
Length of Day
12h 20m
Waxing Gibbous, 79% of the Moon is Illuminated
Mar 22
Waxing Gibbous
Mar 27
Full
Apr 2
Last Quarter
Apr 10
New
Apr 18
First Quarter

Hourly Weather History & Observations

Time (HDT) Temp. Windchill Dew Point Humidity Pressure Visibility Wind Dir Wind Speed Gust Speed Precip Events Conditions
12:16 AM 37.4 °F 25.0 °F 35.6 °F 93% 29.72 in 10.0 mi SSE 29.9 mph 34.5 mph N/A   Overcast
12:36 AM 37.4 °F 27.5 °F 35.6 °F 93% 29.71 in 10.0 mi South 18.4 mph - 0.01 in   Overcast
12:56 AM 37.4 °F 26.4 °F 35.6 °F 93% 29.71 in 9.0 mi South 23.0 mph 31.1 mph 0.02 in   Overcast
1:16 AM 37.4 °F 27.5 °F 35.6 °F 93% 29.70 in 10.0 mi SSE 18.4 mph - 0.01 in   Overcast
1:36 AM 37.4 °F 27.5 °F 35.6 °F 93% 29.69 in 10.0 mi South 18.4 mph 26.5 mph 0.01 in   Overcast
1:56 AM 37.4 °F 25.6 °F 35.6 °F 93% 29.68 in 10.0 mi South 26.5 mph 31.1 mph 0.02 in   Overcast
2:16 AM 39.2 °F 30.2 °F 35.6 °F 87% 29.67 in 7.0 mi South 17.3 mph 23.0 mph 0.01 in   Overcast
2:36 AM 39.2 °F 30.5 °F 35.6 °F 87% 29.66 in 8.0 mi South 16.1 mph 25.3 mph 0.02 in   Overcast
2:56 AM 39.2 °F 29.0 °F 35.6 °F 87% 29.65 in 8.0 mi South 21.9 mph 28.8 mph 0.03 in   Overcast
3:16 AM 39.2 °F 29.8 °F 35.6 °F 87% 29.65 in 10.0 mi South 18.4 mph 31.1 mph 0.01 in   Overcast
3:36 AM 39.2 °F 32.0 °F 35.6 °F 87% 29.64 in 10.0 mi South 11.5 mph 28.8 mph 0.02 in   Overcast
4:16 AM 39.2 °F 29.3 °F 35.6 °F 87% 29.62 in 9.0 mi South 20.7 mph 34.5 mph N/A   Overcast
4:36 AM 39.2 °F 29.8 °F 35.6 °F 87% 29.61 in 9.0 mi South 18.4 mph 25.3 mph N/A   Overcast
4:56 AM 39.2 °F 29.3 °F 35.6 °F 87% 29.60 in 10.0 mi South 20.7 mph 25.3 mph N/A   Overcast
5:16 AM 39.2 °F 30.5 °F 35.6 °F 87% 29.59 in 10.0 mi South 16.1 mph 23.0 mph N/A   Overcast
5:36 AM 39.2 °F 29.0 °F 35.6 °F 87% 29.58 in 10.0 mi South 21.9 mph 25.3 mph N/A   Overcast
5:56 AM 39.2 °F 29.6 °F 35.6 °F 87% 29.58 in 9.0 mi SSW 19.6 mph 27.6 mph 0.03 in   Overcast
6:16 AM 39.2 °F 28.5 °F 35.6 °F 87% 29.58 in 10.0 mi South 24.2 mph 29.9 mph 0.01 in   Overcast
6:36 AM 39.2 °F 28.7 °F 35.6 °F 87% 29.57 in 10.0 mi South 23.0 mph 26.5 mph 0.01 in   Overcast
6:56 AM 39.2 °F 31.6 °F 35.6 °F 87% 29.57 in 10.0 mi SSW 12.7 mph 18.4 mph 0.02 in   Overcast
7:16 AM 39.2 °F 31.2 °F 35.6 °F 87% 29.57 in 10.0 mi SW 13.8 mph 19.6 mph 0.01 in   Overcast
7:36 AM 37.4 °F 28.9 °F 33.8 °F 87% 29.57 in 10.0 mi SSW 13.8 mph - 0.01 in   Overcast
7:56 AM 37.4 °F 26.9 °F 33.8 °F 87% 29.58 in 10.0 mi SW 20.7 mph - 0.02 in   Overcast
8:16 AM 35.6 °F 24.5 °F 33.8 °F 93% 29.59 in 10.0 mi WSW 20.7 mph - 0.02 in   Overcast
8:36 AM 35.6 °F 25.5 °F 33.8 °F 93% 29.59 in 10.0 mi WSW 17.3 mph 21.9 mph 0.02 in   Overcast
8:56 AM 35.6 °F 27.1 °F 32.0 °F 87% 29.61 in 9.0 mi West 12.7 mph - 0.02 in   Mostly Cloudy
9:16 AM 35.6 °F 26.6 °F 33.8 °F 93% 29.62 in 5.0 mi West 13.8 mph - N/A   Overcast
9:36 AM 35.6 °F 26.2 °F 32.0 °F 87% 29.63 in 9.0 mi West 15.0 mph 20.7 mph N/A   Overcast
9:56 AM 35.6 °F 26.2 °F 32.0 °F 87% 29.65 in 7.0 mi West 15.0 mph - N/A   Overcast
10:16 AM 35.6 °F 27.1 °F 33.8 °F 93% 29.66 in 5.0 mi West 12.7 mph - N/A   Overcast
10:36 AM 35.6 °F 27.5 °F 33.8 °F 93% 29.67 in 6.0 mi West 11.5 mph - 0.01 in   Overcast
10:56 AM 35.6 °F 25.5 °F 33.8 °F 93% 29.67 in 10.0 mi West 17.3 mph 20.7 mph 0.01 in   Mostly Cloudy
11:16 AM 35.6 °F 25.5 °F 30.2 °F 81% 29.68 in 10.0 mi West 17.3 mph - N/A   Overcast
11:36 AM 37.4 °F 28.5 °F 30.2 °F 75% 29.69 in 10.0 mi West 15.0 mph - N/A   Overcast
11:56 AM 37.4 °F 27.5 °F 30.2 °F 75% 29.69 in 10.0 mi West 18.4 mph 23.0 mph 0.01 in   Mostly Cloudy
12:16 PM 39.2 °F 30.5 °F 32.0 °F 75% 29.70 in 10.0 mi West 16.1 mph 25.3 mph N/A   Partly Cloudy
12:36 PM 39.2 °F 30.2 °F 30.2 °F 70% 29.71 in 10.0 mi West 17.3 mph - N/A   Partly Cloudy
12:56 PM 39.2 °F 29.6 °F 30.2 °F 70% 29.72 in 10.0 mi West 19.6 mph 24.2 mph N/A   Clear
1:16 PM 39.2 °F 29.8 °F 30.2 °F 70% 29.72 in 10.0 mi West 18.4 mph 27.6 mph N/A   Scattered Clouds
1:36 PM 37.4 °F 27.8 °F 28.4 °F 70% 29.73 in 10.0 mi WSW 17.3 mph 24.2 mph N/A   Overcast
1:56 PM 37.4 °F 28.5 °F 30.2 °F 75% 29.73 in 9.0 mi WSW 15.0 mph 19.6 mph N/A   Overcast
2:16 PM 39.2 °F 29.3 °F 33.8 °F 81% 29.73 in 9.0 mi WSW 20.7 mph 24.2 mph N/A   Mostly Cloudy
2:36 PM 41.0 °F 31.1 °F 30.2 °F 65% 29.74 in 10.0 mi WSW 23.0 mph 29.9 mph N/A   Overcast
2:56 PM 37.4 °F 26.9 °F 30.2 °F 75% 29.74 in 10.0 mi WSW 20.7 mph 35.7 mph N/A   Mostly Cloudy
3:16 PM 39.2 °F 29.3 °F 32.0 °F 75% 29.74 in 10.0 mi WSW 20.7 mph 26.5 mph N/A   Overcast
3:36 PM 37.4 °F 27.2 °F 32.0 °F 81% 29.75 in 10.0 mi West 19.6 mph 26.5 mph N/A   Mostly Cloudy
3:56 PM 39.2 °F 28.7 °F 33.8 °F 81% 29.75 in 10.0 mi WSW 23.0 mph 29.9 mph N/A   Mostly Cloudy
4:16 PM 37.4 °F 26.9 °F 32.0 °F 81% 29.75 in 8.0 mi WSW 20.7 mph 26.5 mph N/A   Overcast
4:36 PM 39.2 °F 27.0 °F 32.0 °F 75% 29.75 in 10.0 mi WSW 32.2 mph 40.3 mph N/A   Overcast
4:56 PM 35.6 °F 24.8 °F 30.2 °F 81% 29.77 in 3.0 mi WSW 19.6 mph 40.3 mph N/A   Overcast
5:16 PM 37.4 °F 27.2 °F 33.8 °F 87% 29.76 in 10.0 mi WSW 19.6 mph 26.5 mph N/A   Mostly Cloudy
5:36 PM 37.4 °F 27.5 °F 32.0 °F 81% 29.76 in 10.0 mi WSW 18.4 mph 25.3 mph N/A   Mostly Cloudy
5:56 PM 37.4 °F 25.9 °F 33.8 °F 87% 29.76 in 9.0 mi WSW 25.3 mph 28.8 mph N/A   Overcast
6:16 PM 37.4 °F 26.1 °F 33.8 °F 87% 29.77 in 7.0 mi WSW 24.2 mph 32.2 mph 0.01 in   Overcast
6:36 PM 39.2 °F 28.5 °F 32.0 °F 75% 29.77 in 10.0 mi WSW 24.2 mph 29.9 mph 0.01 in   Mostly Cloudy
6:56 PM 37.4 °F 26.1 °F 33.8 °F 87% 29.77 in 9.0 mi WSW 24.2 mph 34.5 mph 0.01 in   Overcast
7:16 PM 37.4 °F 25.9 °F 33.8 °F 87% 29.78 in 9.0 mi WSW 25.3 mph 31.1 mph N/A   Overcast
7:36 PM 37.4 °F 25.2 °F 32.0 °F 81% 29.78 in 8.0 mi WSW 28.8 mph 35.7 mph N/A   Overcast
7:56 PM 37.4 °F 25.4 °F 33.8 °F 87% 29.79 in 7.0 mi WSW 27.6 mph 34.5 mph N/A   Mostly Cloudy
8:16 PM 37.4 °F 25.4 °F 30.2 °F 75% 29.80 in 10.0 mi WSW 27.6 mph 38.0 mph N/A   Mostly Cloudy
8:36 PM 37.4 °F 25.6 °F 30.2 °F 75% 29.81 in 10.0 mi WSW 26.5 mph 33.4 mph N/A   Mostly Cloudy
8:56 PM 37.4 °F 25.9 °F 32.0 °F 81% 29.81 in 9.0 mi WSW 25.3 mph 32.2 mph N/A   Overcast
9:16 PM 35.6 °F 21.7 °F 30.2 °F 81% 29.82 in 5.0 mi WSW 34.5 mph 41.4 mph N/A   Overcast
9:36 PM 35.6 °F 23.7 °F 30.2 °F 81% 29.83 in 10.0 mi WSW 24.2 mph 33.4 mph N/A   Overcast
9:56 PM 35.6 °F 24.0 °F 30.2 °F 81% 29.84 in 10.0 mi West 23.0 mph 28.8 mph N/A   Mostly Cloudy
10:16 PM 37.4 °F 25.2 °F 30.2 °F 75% 29.84 in 10.0 mi WSW 28.8 mph 34.5 mph N/A   Mostly Cloudy
10:36 PM 35.6 °F 23.4 °F 30.2 °F 81% 29.85 in 10.0 mi WSW 25.3 mph 32.2 mph N/A   Overcast
10:56 PM 37.4 °F 25.9 °F 30.2 °F 75% 29.86 in 10.0 mi WSW 25.3 mph 39.1 mph N/A   Mostly Cloudy
11:16 PM 37.4 °F 26.4 °F 30.2 °F 75% 29.86 in 10.0 mi WSW 23.0 mph 33.4 mph N/A   Mostly Cloudy
11:36 PM 37.4 °F 26.1 °F 32.0 °F 81% 29.87 in 9.0 mi West 24.2 mph 33.4 mph N/A   Overcast
11:56 PM 37.4 °F 26.1 °F 32.0 °F 81% 29.87 in 9.0 mi WSW 24.2 mph 33.4 mph N/A   Mostly Cloudy